Time,B instrument,Bx,By,Bz,sigma B,Ion instrument,Status,Tp_par,Tp_perp,carrot,r_sun,clat,clong,earth_he_angle,n_p,vp_x,vp_y,vp_z,vth_p_par,vth_p_perp
1980-06-16 00:00:13,1,16.0,-0.68,0.88,0.568507,1,1,96575.9,142095.0,1696,0.47927952,7.2094078,346.504,84.800858,17.8219,387.418,-0.34741,3.80298,39.9294,48.4337
1980-06-16 00:00:53,1,15.8786,4.7581e-17,0.0642857,1.45395,1,1,123942.0,139848.0,1696,0.47927952,7.2094078,346.50009,84.800858,18.1972,388.156,0.401738,7.04959,45.2342,48.0492
1980-06-16 00:01:34,1,15.9286,2.65714,0.0785714,1.78818,1,1,120058.0,141776.0,1696,0.47928858,7.2093897,346.49365,84.802231,18.3102,389.871,-14.0054,14.2749,44.5198,48.3793
1980-06-16 00:02:14,1,15.1714,-3.67857,1.90714,2.38629,1,1,125446.0,138890.0,1696,0.47929764,7.2093716,346.48721,84.803604,19.3993,390.989,12.0424,-2.22528,45.5078,47.8843
1980-06-16 00:02:55,1,15.8643,2.04286,0.735714,1.25864,1,1,105545.0,132418.0,1696,0.47929764,7.2093716,346.48331,84.803604,17.7994,388.07,-10.5931,3.60943,41.7423,46.7554
1980-06-16 00:03:35,1,15.7643,3.86429,0.871429,1.27707,1,1,112731.0,139683.0,1696,0.4793067,7.2093534,346.47687,84.804993,17.535,389.324,-25.7429,-0.221432,43.14,48.0209
1980-06-16 00:04:16,1,15.96,-0.92,1.04,2.61656,1,1,109087.0,137852.0,1696,0.47931582,7.2093353,346.47433,84.806366,17.7791,387.635,-3.1691,3.94414,42.437,47.7051
1980-06-16 00:04:56,1,15.8714,-1.84286,1.16429,1.45246,1,1,117516.0,137904.0,1696,0.47931582,7.2093353,346.46652,84.806366,18.8116,388.667,7.09601,0.730056,44.0459,47.7141
1980-06-16 00:05:37,1,14.9615,-5.47692,1.49231,1.58656,1,1,106816.0,136937.0,1696,0.47932488,7.2093172,346.46011,84.807755,16.914,389.01,13.9355,-0.556412,41.9929,47.5464
1980-06-16 00:06:17,1,14.7429,-6.09286,0.9,1.9571,1,1,107133.0,136131.0,1696,0.47933394,7.2092991,346.45758,84.809128,18.1876,395.475,28.0054,2.53129,42.0551,47.4063
1980-06-16 00:06:58,1,15.6714,-3.45,0.942857,0.746317,1,1,103802.0,145442.0,1696,0.47933394,7.2092991,346.44977,84.809128,18.398,388.103,11.9949,4.7434,41.3963,49.0007
1980-06-16 00:07:38,1,15.42,-4.74667,0.666667,0.757833,1,1,121851.0,143522.0,1696,0.479343,7.209281,346.44724,84.810501,19.159,390.926,20.3203,9.8533,44.851,48.6762
1980-06-16 00:08:19,1,15.5786,-4.19286,0.492857,0.829033,1,1,103353.0,136724.0,1696,0.47935212,7.2092628,346.4408,84.81189,17.876,390.094,19.5406,6.23519,41.3067,47.5094
1980-06-16 00:08:59,1,15.8643,-2.95,1.4,0.620319,1,1,108303.0,141323.0,1696,0.47935212,7.2092628,346.43298,84.81189,18.0271,390.286,11.987,0.579957,42.2842,48.3019
1980-06-16 00:09:40,1,16.05,-2.91429,0.571429,0.519664,1,1,107888.0,139045.0,1696,0.47936118,7.2092447,346.43045,84.813263,17.6771,388.712,12.4574,4.7162,42.203,47.9111
1980-06-16 00:10:20,1,16.2143,-1.35,1.95,0.678609,1,1,108786.0,134392.0,1696,0.47937024,7.2092266,346.42404,84.814651,17.4943,390.163,9.67999,-1.47795,42.3784,47.1026
1980-06-16 00:11:01,1,16.1867,-2.70667,0.373333,0.527636,1,1,90895.5,132081.0,1696,0.4793793,7.2092085,346.42151,84.816025,17.0427,387.229,14.6106,7.74579,38.7373,46.6957
1980-06-16 00:11:41,1,16.1,-2.05714,0.728571,1.24565,1,1,105320.0,143930.0,1696,0.4793793,7.2092085,346.4137,84.816025,19.2689,388.147,15.3807,4.06709,41.6979,48.7453
1980-06-16 00:12:22,1,15.8923,-2.31538,2.06154,0.409213,1,1,103919.0,148643.0,1696,0.47938842,7.2091904,346.40726,84.817398,18.4923,389.068,11.8957,-1.86628,41.4196,49.5371
1980-06-16 00:13:02,1,16.28,-1.66667,1.1,0.53897,1,1,116157.0,135107.0,1696,0.47939748,7.2091722,346.40472,84.818787,18.1658,386.749,7.8585,2.94274,43.7906,47.2277
1980-06-16 00:13:43,1,16.0643,-1.42857,2.0,0.641467,1,1,97209.4,135843.0,1696,0.47939748,7.2091722,346.39691,84.818787,17.91,387.716,7.59729,0.358111,40.0601,47.3562
1980-06-16 00:14:23,1,16.1857,-1.47857,1.36429,0.587541,1,1,111897.0,139079.0,1696,0.47940654,7.2091541,346.39438,84.82016,18.246,387.84,10.1032,3.75674,42.9801,47.9169
1980-06-16 00:15:04,1,16.1462,-0.246154,2.33077,0.419918,1,1,100458.0,143381.0,1696,0.4794156,7.209136,346.38797,84.821548,18.1415,384.487,2.77646,-3.41029,40.7239,48.6524
1980-06-16 00:15:44,1,16.2143,-0.664286,2.01429,0.468007,1,1,101366.0,141429.0,1696,0.4794156,7.209136,346.38406,84.821548,18.1585,385.061,4.1605,1.15465,40.9075,48.32
1980-06-16 00:17:05,1,16.34,-1.23,0.61,0.406694,1,1,114614.0,151283.0,1696,0.47943377,7.2090998,346.37119,84.824295,19.3669,384.142,7.64686,5.69194,43.4988,49.9751
1980-06-16 00:17:46,1,16.3833,-0.941667,0.733333,0.266536,1,1,94336.3,142059.0,1696,0.47943377,7.2090998,346.36728,84.824295,18.1493,383.805,6.93567,4.92829,39.4636,48.4276
1980-06-16 00:18:26,1,16.4267,-1.39333,0.206667,0.450777,1,1,118606.0,143452.0,1696,0.47944283,7.2090816,346.36084,84.825684,18.7415,383.47,6.78376,4.64643,44.2498,48.6643
1980-06-16 00:19:07,1,16.3846,-1.96923,0.176923,0.413958,1,1,95951.1,137858.0,1696,0.47945189,7.2090635,346.35831,84.827057,17.5368,384.582,11.7924,7.09301,39.8,47.7062
1980-06-16 00:19:47,1,16.5143,-1.84286,0.492857,0.364566,1,1,110009.0,134623.0,1696,0.47945189,7.2090635,346.35049,84.827057,17.6175,381.921,10.4492,4.2557,42.6159,47.1429
1980-06-16 00:20:28,1,16.4929,-1.92857,0.0357143,0.334877,1,1,103439.0,140158.0,1696,0.47946101,7.2090454,346.34409,84.828445,18.1444,384.169,9.40961,5.81021,41.3238,48.1025
1980-06-16 00:21:08,1,16.6714,-1.77857,-0.45,0.265538,1,1,106380.0,132815.0,1696,0.47947007,7.2090273,346.34155,84.829819,17.5081,383.299,12.5168,8.17541,41.907,46.8254
1980-06-16 00:21:49,1,16.5385,-1.9,-0.438462,0.238833,1,1,95756.3,141703.0,1696,0.47947007,7.2090273,346.33374,84.829819,17.8256,384.579,9.68013,9.79436,39.7596,48.3668
1980-06-16 00:22:29,1,16.6857,-1.8,-0.478571,0.285446,1,1,99691.2,149945.0,1696,0.47947913,7.2090092,346.33121,84.831192,18.5167,384.397,11.1526,10.1224,40.5683,49.7536
1980-06-16 00:23:10,1,16.6,-1.56154,-0.492308,0.17097,1,1,94117.1,138534.0,1696,0.47948819,7.2089911,346.32477,84.832581,17.013,383.397,8.25493,11.343,39.4178,47.8229
1980-06-16 00:23:50,1,16.5733,-2.22667,-0.426667,0.42332,1,1,102288.0,148519.0,1696,0.47948819,7.2089911,346.32086,84.832581,17.9804,383.889,13.0626,12.5971,41.0931,49.5164
1980-06-16 00:24:31,1,16.6143,-2.35714,-0.521429,0.430531,1,1,92882.1,137539.0,1696,0.47949731,7.2089729,346.31442,84.833954,17.4812,385.797,10.5462,9.45842,39.1583,47.6509
1980-06-16 00:25:11,1,16.6571,-2.67857,-1.0,0.437351,1,1,110974.0,138966.0,1696,0.47950637,7.2089548,346.30801,84.835342,18.6846,386.462,12.5469,13.1978,42.8024,47.8974
1980-06-16 00:25:52,1,16.8,-2.29286,-1.40714,0.277562,1,1,96918.0,135440.0,1696,0.47950637,7.2089548,346.30411,84.835342,17.4148,386.295,12.9493,15.7832,40.0,47.2858
1980-06-16 00:26:32,1,16.8,-2.15714,-1.7,0.397697,1,1,102989.0,143583.0,1696,0.47951543,7.2089367,346.29767,84.836716,17.8796,385.308,11.707,15.4243,41.2339,48.6867
1980-06-16 00:27:13,1,16.6462,-2.12308,-1.86154,0.364391,1,1,105168.0,139513.0,1696,0.47952449,7.2089186,346.29514,84.838089,17.812,385.609,10.9604,15.8392,41.6676,47.9916
1980-06-16 00:27:53,1,16.6786,-1.9,-1.96429,0.301865,1,1,126759.0,139854.0,1696,0.47952449,7.2089186,346.28732,84.838089,19.6845,380.874,12.6449,17.1378,45.7453,48.0502
1980-06-16 00:28:34,1,16.7923,-1.50769,-2.00769,0.307307,1,1,104925.0,141662.0,1696,0.47953361,7.2089005,346.28088,84.839478,19.0722,385.703,9.35552,16.07,41.6196,48.3598
1980-06-16 00:29:14,1,16.66,-2.5,-1.56,0.319583,1,1,109387.0,148856.0,1696,0.47954267,7.2088823,346.27835,84.840851,18.8853,385.965,13.1286,16.1301,42.4954,49.5726
1980-06-16 00:29:55,1,16.8571,-2.08571,-1.97857,0.341739,1,1,102455.0,139055.0,1696,0.47954267,7.2088823,346.27054,84.840851,17.7814,386.561,12.6982,17.8506,41.1267,47.9128
1980-06-16 00:30:35,1,16.8286,-2.76429,-1.73571,0.436942,1,1,95683.3,149037.0,1696,0.47955173,7.2088642,346.26804,84.842239,18.0894,387.151,15.3112,15.5051,39.7444,49.6026
1980-06-16 00:31:16,1,16.9571,-1.58571,-2.07143,0.473588,1,1,107588.0,139679.0,1696,0.47956079,7.2088461,346.2616,84.843613,18.6023,383.802,6.23272,16.4696,42.1444,48.0202
1980-06-16 00:31:56,1,17.0929,-1.5,-1.81429,0.351164,1,1,100869.0,135910.0,1696,0.47956079,7.2088461,346.25378,84.843613,17.5353,383.494,7.51459,16.5517,40.8073,47.3679
1980-06-16 00:32:37,1,16.95,-2.05,-1.75714,0.32119,1,1,103415.0,138407.0,1696,0.47956991,7.208828,346.25125,84.844986,18.6744,385.633,9.2948,15.5699,41.319,47.801
1980-06-16 00:33:17,1,16.9,-2.65714,-2.03571,0.607479,1,1,109353.0,142752.0,1696,0.47957897,7.2088099,346.24481,84.846375,18.4496,385.639,16.4899,17.6416,42.4887,48.5456
1980-06-16 00:33:58,1,16.8385,-2.76923,-1.86923,0.355847,1,1,100019.0,134443.0,1696,0.47957897,7.2088099,346.24091,84.846375,17.6396,385.928,13.3278,14.5483,40.6349,47.1116
1980-06-16 00:34:38,1,16.82,-2.7,-1.36,0.37238,1,1,88399.1,137675.0,1696,0.47958803,7.2087917,346.23447,84.847748,17.0152,384.441,13.8134,15.3077,38.2016,47.6744
1980-06-16 00:35:19,1,16.9571,-2.57143,-1.21429,0.478091,1,1,98215.0,145003.0,1696,0.47959709,7.2087736,346.22806,84.849136,18.6217,385.686,13.1673,15.4854,40.2668,48.9267
1980-06-16 00:35:59,1,17.1286,-2.03571,-2.15714,0.320156,1,1,95314.7,140609.0,1696,0.47959709,7.2087736,346.22415,84.849136,17.992,383.655,8.19401,14.9158,39.6678,48.1797
1980-06-16 00:36:40,1,17.1071,-2.22143,-2.1,0.430353,1,1,97302.0,144173.0,1696,0.47960621,7.2087555,346.21771,84.85051,17.4841,383.647,10.7868,16.4119,40.0792,48.7865
1980-06-16 00:37:20,1,17.0786,-2.57857,-2.15,0.290584,1,1,95062.9,146552.0,1696,0.47961527,7.2087374,346.21518,84.851883,17.1281,382.499,11.349,15.575,39.6154,49.1875
1980-06-16 00:38:01,1,16.9308,-2.88462,-1.78462,0.339857,1,1,99957.4,141643.0,1696,0.47962433,7.2087193,346.20874,84.853271,17.4524,383.196,12.6265,14.7192,40.6224,48.3565
1980-06-16 00:38:41,1,16.9714,-3.35,-1.95,0.358426,1,1,92941.0,139155.0,1696,0.47962433,7.2087193,346.20483,84.853271,17.5072,385.261,14.8709,14.6785,39.1707,47.93
1980-06-16 00:39:22,1,16.8071,-4.17143,-1.4,0.6278,1,1,101281.0,144992.0,1696,0.47963339,7.2087011,346.19839,84.854645,18.2731,384.975,15.7809,14.216,40.8904,48.9249
1980-06-16 00:40:02,1,17.0867,-2.78,-2.30667,0.639305,1,1,98164.8,138142.0,1696,0.47964251,7.208683,346.19199,84.856033,17.4861,385.229,13.1775,15.814,40.2565,47.7552
1980-06-16 00:40:43,1,16.9071,-3.84286,-1.92143,0.616855,1,1,96379.7,139706.0,1696,0.47964251,7.208683,346.18808,84.856033,17.3449,386.776,14.091,15.1152,39.8888,48.0248
1980-06-16 00:41:23,1,16.8643,-3.42857,-2.35714,1.10437,1,1,110724.0,149901.0,1696,0.47965157,7.2086649,346.18164,84.857407,18.7455,381.648,17.27,14.8106,42.7541,49.7462
1980-06-16 00:42:04,1,16.7857,-3.77143,-2.03571,0.877409,1,1,92050.6,142074.0,1696,0.47966063,7.2086468,346.17911,84.85878,16.9594,381.605,16.8118,12.364,38.9826,48.43
1980-06-16 00:42:44,1,16.2077,-3.80769,-5.26154,1.18676,1,1,70849.7,115039.0,1696,0.47966063,7.2086468,346.1713,84.85878,18.4023,346.162,33.1859,24.3344,34.2001,43.5794
1980-06-16 00:43:24,1,16.0357,-4.35,-4.25,0.875138,1,1,82372.6,140925.0,1696,0.47966969,7.2086287,346.16486,84.860168,15.9427,377.22,11.3526,26.8836,36.8765,48.2338
1980-06-16 00:44:04,1,16.3692,-4.03846,-4.70769,0.764988,1,1,83643.8,148549.0,1696,0.47967881,7.2086105,346.16232,84.861542,16.5831,386.073,21.1029,27.5577,37.1599,49.5214
1980-06-16 00:44:45,1,16.8214,-2.95714,-3.97143,0.772123,1,1,88648.3,141114.0,1696,0.47967881,7.2086105,346.15451,84.861542,17.2927,381.457,9.98611,26.7246,38.2554,48.2662
1980-06-16 00:45:25,1,16.9071,-2.17143,-4.20714,1.07195,1,1,87096.0,141662.0,1696,0.47968787,7.2085924,346.15201,84.86293,16.7757,383.703,8.91148,27.4087,37.919,48.3598
1980-06-16 00:46:07,1,17.0385,-2.22308,-4.00769,0.854089,1,1,90204.9,131411.0,1696,0.47969693,7.2085743,346.14557,84.864304,16.5764,383.655,11.5601,22.1256,38.5898,46.5772
1980-06-16 00:46:47,1,16.9429,-2.31429,-4.06429,0.540077,1,1,80617.1,140159.0,1696,0.47969693,7.2085743,346.13776,84.864304,15.827,382.979,12.6763,22.048,36.4814,48.1026
1980-06-16 00:47:28,1,16.7615,-2.26154,-3.94615,1.21762,1,1,98529.5,147947.0,1696,0.47970599,7.2085562,346.13522,84.865677,16.9629,384.598,8.92546,27.8063,40.3312,49.4209
1980-06-16 00:48:08,1,16.9714,-3.27143,-0.871429,0.559701,1,1,70645.6,147863.0,1696,0.47971511,7.2085381,346.12878,84.867065,15.4111,380.419,17.4612,10.8295,34.1508,49.4069
1980-06-16 00:48:49,1,16.7385,-3.92308,-1.44615,0.4082,1,1,98433.8,142946.0,1696,0.47971511,7.2085381,346.12488,84.867065,17.6029,380.464,17.4232,16.814,40.3116,48.5785
1980-06-16 00:49:29,1,16.7786,-3.73571,-1.62857,0.750442,1,1,100462.0,144230.0,1696,0.47972417,7.2085199,346.11844,84.868439,18.1621,374.4,21.9283,12.2802,40.7248,48.7962
1980-06-16 00:50:10,1,16.7769,-2.67692,-3.44615,0.308652,1,1,94467.6,135884.0,1696,0.47973323,7.2085018,346.11594,84.869827,16.8829,383.011,15.7038,19.3873,39.4911,47.3633
1980-06-16 00:50:50,1,16.84,-2.46,-3.61333,0.385516,1,1,85032.8,146874.0,1696,0.47973323,7.2085018,346.10812,84.869827,17.134,381.986,15.7505,20.7613,37.4672,49.2414
1980-06-16 00:51:31,1,16.7214,-2.87857,-3.47143,0.433896,1,1,99670.9,134223.0,1696,0.47974229,7.2084837,346.10168,84.871201,16.7085,383.913,15.8425,22.4996,40.5641,47.073
1980-06-16 00:52:11,1,16.7857,-2.67857,-3.19286,0.620484,1,1,83833.2,142564.0,1696,0.47975141,7.2084656,346.09915,84.872574,16.9527,381.527,18.5154,20.7502,37.202,48.5136
1980-06-16 00:52:52,1,16.7143,-2.27857,-3.31429,0.388942,1,1,98730.6,137351.0,1696,0.47975141,7.2084656,346.09134,84.872574,18.1618,384.649,13.4279,22.4602,40.3723,47.6183
1980-06-16 00:53:32,1,16.7,-2.99286,-3.2,0.421671,1,1,89130.8,134465.0,1696,0.47976047,7.2084475,346.08881,84.873962,16.7729,384.415,16.9759,21.8527,38.3594,47.1153
1980-06-16 00:54:13,1,16.5769,-3.64615,-2.76923,0.40791,1,1,89915.7,121030.0,1696,0.47976953,7.2084293,346.08237,84.875336,17.1117,386.587,21.5312,19.382,38.5279,44.6996
1980-06-16 00:54:53,1,15.7786,-6.10714,-1.12857,1.77887,1,1,84532.9,121966.0,1696,0.47976953,7.2084293,346.07455,84.875336,14.5081,381.136,34.3428,7.92824,37.3569,44.8722
1980-06-16 00:55:34,1,16.1846,-5.29231,-2.15385,0.433098,1,1,86327.4,130302.0,1696,0.47977859,7.2084112,346.07205,84.876724,16.1682,379.979,23.6811,20.9543,37.7513,46.3804
1980-06-16 00:56:55,1,16.6364,-4.37273,-1.6,0.738996,1,1,74150.2,130007.0,1696,0.47978771,7.2083931,346.06171,84.878098,15.6156,376.267,20.7018,17.3486,34.9876,46.3278
1980-06-16 00:57:35,1,16.5846,-4.34615,-0.553846,1.25703,1,1,84546.3,139097.0,1696,0.47979677,7.2083759,346.05527,84.879471,16.9649,376.822,18.0805,15.2753,37.3598,47.92
1980-06-16 00:58:16,1,16.2714,-5.36429,0.657143,1.05881,1,1,79427.9,147619.0,1696,0.47980583,7.2083578,346.04883,84.880859,16.8605,378.688,25.1367,8.78941,36.2113,49.3661
1980-06-16 00:58:56,1,16.3857,-5.53571,-0.942857,1.1053,1,1,89030.7,141312.0,1696,0.47980583,7.2083578,346.04492,84.880859,15.8494,378.799,29.341,11.5573,38.3379,48.3001
1980-06-16 00:59:37,1,16.4538,-5.03077,-2.64615,0.406893,1,1,83601.9,143128.0,1696,0.47981489,7.2083397,346.03848,84.882233,16.7561,378.354,20.9729,23.8174,37.1506,48.6095
1980-06-16 01:00:17,1,16.1077,-6.15385,-1.6,0.960831,1,1,81283.0,142311.0,1696,0.47982401,7.2083216,346.03598,84.883621,16.2355,379.81,28.2634,22.9561,36.6318,48.4704
1980-06-16 01:00:58,1,16.3385,-5.85385,-0.4,0.571306,1,1,77001.1,138755.0,1696,0.47982401,7.2083216,346.02817,84.883621,16.0983,378.552,25.9176,15.4484,35.6539,47.861
1980-06-16 01:01:38,1,16.2077,-6.32308,0.407692,0.465877,1,1,85055.3,140426.0,1696,0.47983307,7.2083025,346.02563,84.884995,16.2469,380.059,30.5221,8.61341,37.4721,48.1484
1980-06-16 01:02:19,1,16.4,-5.75714,1.05714,0.554757,1,1,71264.8,134801.0,1696,0.47984213,7.2082844,346.0192,84.886368,15.7541,377.59,26.5614,7.37685,34.3001,47.1742
1980-06-16 01:02:59,1,17.3154,-3.26154,0.746154,1.29199,1,1,90183.1,141168.0,1696,0.47984213,7.2082844,346.01138,84.886368,15.5932,373.131,9.59255,13.2461,38.5852,48.2755
1980-06-16 01:03:40,1,16.7786,-5.26429,-0.0357143,1.07796,1,1,73473.4,139626.0,1696,0.47985119,7.2082653,346.00885,84.887741,14.9239,375.598,25.3229,9.35508,34.8276,48.011
1980-06-16 01:04:20,1,16.7643,-5.12857,-0.164286,1.41807,1,1,76173.4,126005.0,1696,0.47986025,7.2082472,346.00241,84.889114,15.615,382.086,31.3703,10.5901,35.4617,45.6092
1980-06-16 01:05:01,1,17.3231,-3.43846,-0.192308,0.695208,1,1,75410.8,135684.0,1696,0.47986937,7.2082281,345.99988,84.890488,16.2905,375.135,16.2107,13.8281,35.2837,47.3284
1980-06-16 01:05:41,1,17.4846,-3.00769,-0.369231,0.746986,1,1,83591.4,136329.0,1696,0.47986937,7.2082281,345.99207,84.890488,16.6245,376.352,13.2801,20.9154,37.1483,47.4409
1980-06-16 01:06:22,1,17.6692,-2.71538,-0.5,0.119169,1,1,77739.4,143877.0,1696,0.47987843,7.20821,345.98563,84.891861,16.6127,373.52,12.4134,13.212,35.8244,48.7365
1980-06-16 01:07:02,1,17.5308,-2.30769,-0.376923,0.33282,1,1,78108.8,135861.0,1696,0.47988749,7.2081909,345.98309,84.893234,16.5462,374.917,12.4702,13.9532,35.9094,47.3594
1980-06-16 01:07:43,1,17.5,-2.71538,-0.253846,0.360473,1,1,82520.3,132117.0,1696,0.47988749,7.2081909,345.97528,84.893234,16.5249,374.442,14.7842,11.913,36.9095,46.7021
1980-06-16 01:08:23,1,17.4462,-3.1,-0.0692308,0.59743,1,1,72246.1,135013.0,1696,0.47989655,7.2081728,345.97275,84.894608,16.1263,371.773,10.4204,11.2628,34.5355,47.2112
1980-06-16 01:09:04,1,17.0462,-4.56923,0.461538,1.00884,1,1,79856.4,139638.0,1696,0.47990561,7.2081547,345.96631,84.895981,16.7822,376.228,23.8234,5.54047,36.3089,48.0132
1980-06-16 01:09:44,1,17.6538,-2.13846,-0.623077,1.20468,1,1,73548.6,136169.0,1696,0.47990566,7.2081537,345.9585,84.895981,15.7726,371.843,14.5397,11.1163,34.8454,47.413
1980-06-16 01:11:05,1,17.8308,-0.130769,-1.05385,0.451297,1,1,80675.9,138873.0,1696,0.47992378,7.2081175,345.94952,84.898743,16.2714,374.423,9.24217,14.0148,36.4947,47.8813
1980-06-16 01:11:46,1,17.6154,0.2,-0.623077,0.396135,1,1,79426.1,143831.0,1696,0.47992378,7.2081175,345.94562,84.898743,16.6195,374.845,10.0238,14.8436,36.2109,48.7286
1980-06-16 01:12:26,1,17.7071,0.257143,-0.75,0.814975,1,1,82070.7,139230.0,1696,0.47993284,7.2080984,345.93918,84.900116,16.6818,373.478,14.6047,14.9191,36.8088,47.9429
1980-06-16 01:13:47,1,17.4154,1.15385,-0.5,0.398963,1,1,76743.4,132103.0,1696,0.4799419,7.2080803,345.92883,84.901489,16.3019,370.878,9.08962,11.3955,35.5941,46.6998
1980-06-16 01:14:28,1,17.3333,2.0,-0.525,0.239647,1,1,84193.2,134717.0,1696,0.47995102,7.2080612,345.92239,84.902863,17.0749,369.573,6.52544,13.8727,37.2818,47.1596
1980-06-16 01:15:08,1,17.2538,2.46154,-1.55385,0.843773,1,1,81998.4,134151.0,1696,0.47996008,7.2080431,345.91986,84.904236,16.6635,371.317,6.55013,14.1235,36.7926,47.0602
1980-06-16 01:15:49,1,17.1923,2.78462,-1.12308,0.507576,1,1,81141.8,130802.0,1696,0.47996008,7.2080431,345.91205,84.904236,16.3436,369.724,6.96926,13.143,36.5999,46.4693
1980-06-16 01:16:29,1,17.3538,2.51538,-0.892308,0.703752,1,1,81349.7,133232.0,1696,0.47996914,7.208024,345.90952,84.905609,16.274,370.225,8.99694,11.8638,36.6468,46.8989
1980-06-16 01:17:10,1,17.3154,2.58462,-1.09231,1.1956,1,1,87832.9,134505.0,1696,0.4799782,7.2080059,345.90308,84.906982,17.4461,369.016,6.0261,8.81579,38.0791,47.1224
1980-06-16 01:17:50,1,17.3846,1.5,-1.97692,0.254196,1,1,90309.3,131738.0,1696,0.4799782,7.2080059,345.89526,84.906982,17.7472,368.734,6.4942,13.2302,38.6122,46.6351
1980-06-16 01:18:31,1,17.4385,1.82308,-2.01538,0.387375,1,1,84965.0,127503.0,1696,0.47998726,7.2079868,345.89273,84.908356,17.6502,369.236,10.0888,14.0517,37.4523,45.8794
1980-06-16 01:19:11,1,17.4462,2.09231,-1.31538,0.98052,1,1,83879.7,129895.0,1696,0.47999638,7.2079687,345.88629,84.909729,17.1797,369.424,11.4692,19.7357,37.2123,46.3078
1980-06-16 02:02:13,-1,nan,nan,nan,nan,1,4,nan,nan,1696,0.4803865,7.2071705,345.55087,84.968842,nan,nan,nan,nan,nan,nan
1980-06-16 02:03:03,-1,nan,nan,nan,nan,1,3,nan,nan,1696,0.48039556,7.2071514,345.54443,84.970215,nan,390.878,-19.7172,10.203,nan,nan
1980-06-16 02:03:43,1,15.0231,8.7,-0.907692,0.46841,1,1,92765.6,101854.0,1696,0.48039556,7.2071514,345.53662,84.970215,19.6336,355.992,33.5898,8.03196,39.1337,41.006
1980-06-16 02:04:24,1,15.1077,8.92308,-0.784615,0.621984,1,1,106788.0,124313.0,1696,0.48040462,7.2071323,345.53409,84.971588,16.6838,390.166,-23.7373,6.1586,41.9874,45.302
1980-06-16 02:05:45,1,13.8786,5.9,-6.95714,0.266975,1,1,112893.0,185425.0,1696,0.48041373,7.2071133,345.52374,84.972961,16.3321,392.451,-12.3742,26.5665,43.1708,55.3276
1980-06-16 02:06:25,1,13.8067,5.96,-6.60667,0.745416,1,1,105281.0,185577.0,1696,0.48042279,7.2070942,345.5173,84.974319,16.7239,390.795,-14.0051,24.5561,41.6902,55.3502
1980-06-16 02:09:48,-1,nan,nan,nan,nan,1,3,nan,nan,1696,0.48045003,7.207037,345.49017,84.978439,nan,392.455,-12.7661,21.4814,nan,nan
1980-06-16 02:11:49,-1,nan,nan,nan,nan,1,4,nan,nan,1696,0.48046815,7.2069988,345.47336,84.981171,nan,nan,nan,nan,nan,nan
1980-06-16 02:14:31,1,15.2,5.35,-2.0,0.45,1,1,114964.0,174901.0,1696,0.48049539,7.2069416,345.45404,84.985291,17.1763,384.244,-1.01324,4.3656,43.5651,53.7347
1980-06-16 02:15:12,1,15.3643,3.65714,-2.06429,1.54547,1,1,109785.0,188008.0,1696,0.48050445,7.2069225,345.4476,84.986664,16.7041,382.728,-4.45417,3.35118,42.5725,55.7116
1980-06-16 02:16:33,-1,nan,nan,nan,nan,1,4,nan,nan,1696,0.48051351,7.2069035,345.43726,84.988022,nan,nan,nan,nan,nan,nan
1980-06-16 02:17:13,1,15.58,1.42,-3.06,0.31241,1,1,78883.4,178360.0,1696,0.48052257,7.2068844,345.43472,84.989395,15.6515,378.958,3.79433,14.6656,36.087,54.2633
1980-06-16 02:17:55,1,15.6571,1.8,-2.78571,0.58257,1,1,103666.0,182937.0,1696,0.48052263,7.2068844,345.42691,84.989395,16.7754,380.932,1.98196,9.87577,41.3691,54.9553
1980-06-16 02:18:35,1,15.2692,3.05385,-3.20769,0.785896,1,1,103597.0,183955.0,1696,0.48053169,7.2068653,345.42047,84.990768,16.6141,379.794,2.16515,10.5841,41.3553,55.1079
1980-06-16 02:19:16,1,15.6714,1.23571,-3.52857,0.570043,1,1,102969.0,178105.0,1696,0.48054075,7.2068462,345.41794,84.992142,16.1438,382.173,9.67854,11.1468,41.2299,54.2246
1980-06-16 02:19:56,1,15.8857,1.14286,-3.75714,0.803817,1,1,118877.0,166507.0,1696,0.48054075,7.2068462,345.41013,84.992142,16.944,381.204,5.52057,9.96158,44.3003,52.4292
1980-06-16 02:20:37,1,15.2308,2.63077,-4.68462,0.798668,1,1,102082.0,179883.0,1696,0.48054981,7.2068272,345.40759,84.993515,16.8234,383.561,2.50696,14.9698,41.0518,54.4946
1980-06-16 02:21:17,1,15.1714,1.87143,-4.46429,1.31717,1,1,124740.0,191182.0,1696,0.48055887,7.2068081,345.40112,84.994873,18.2495,380.385,9.09187,17.3264,45.3796,56.1799
1980-06-16 02:21:58,1,15.1385,2.24615,-4.74615,0.463713,1,1,112738.0,197918.0,1696,0.48055893,7.2068081,345.39722,84.994873,16.8493,381.05,4.59971,17.104,43.1412,57.1612
1980-06-16 02:22:38,1,14.94,1.21333,-5.12667,1.54968,1,1,128426.0,182019.0,1696,0.48056799,7.206789,345.39078,84.996246,18.7159,380.633,6.285,18.6883,46.0453,54.8171
1980-06-16 02:23:19,1,14.8786,-0.521429,-3.85714,0.426064,1,1,109711.0,195558.0,1696,0.48057705,7.2067699,345.38434,84.99762,18.9019,382.558,11.1012,10.3873,42.5582,56.8193
1980-06-16 02:26:40,1,15.475,-1.0,-1.4,0.268095,1,1,128184.0,168414.0,1696,0.48060429,7.2067127,345.35721,85.001724,19.1167,373.928,64.8278,5.95787,46.0019,52.7287
1980-06-16 02:27:21,1,15.6818,-0.627273,-1.01818,0.530398,1,1,120937.0,176595.0,1696,0.48061335,7.2066936,345.35468,85.003098,17.7067,385.79,8.85,5.94516,44.6826,53.9942
1980-06-16 02:28:01,1,15.6714,-0.7,-1.3,0.484663,1,1,189894.0,169412.0,1696,0.48062241,7.2066746,345.34824,85.004471,20.6945,381.299,7.70603,3.52699,55.9904,52.8846
1980-06-16 02:28:43,1,15.4643,-0.735714,-2.45714,0.578086,1,1,116461.0,169344.0,1696,0.48062241,7.2066746,345.34433,85.004471,16.9229,384.194,12.4655,9.7093,43.8478,52.8741
1980-06-16 02:30:04,1,15.3214,1.9,-1.41429,0.741654,1,1,104767.0,164797.0,1696,0.48064059,7.2066364,345.33145,85.007217,16.5565,383.09,-2.2,10.2766,41.5883,52.1594
1980-06-16 02:30:44,1,15.5846,0.223077,-2.06923,0.532606,1,1,122637.0,180032.0,1696,0.48064059,7.2066364,345.32755,85.007217,17.2396,383.921,6.46578,6.89373,44.9955,54.517
1980-06-16 02:31:25,1,15.0154,4.15385,-2.62308,0.927043,1,1,106114.0,178048.0,1696,0.48064965,7.2066174,345.32108,85.008575,16.2902,384.648,-12.6795,14.6281,41.8547,54.2159